{"data":{"norad_id":61532,"epoch":"2026-09-21T12:29:40.056864Z","epoch_age_seconds":103899,"freshness":"FRESH","line1":"1 61532U 24184A   26264.52060251 -.00000147  00000+0  36468-5 0  9991","line2":"2 61532  53.1584 350.9727 0000877  61.8252 298.2855 15.69699442111179","mean_motion":15.69699442,"eccentricity":8.77e-5,"inclination_deg":53.1584,"raan_deg":350.9727,"arg_perigee_deg":61.8252,"mean_anomaly_deg":298.2855,"bstar":3.6468e-6,"rev_number":11117,"period_min":91.737307249422,"perigee_km":359.16605024314,"apogee_km":360.34787684434,"semimajor_km":6737.8939635437,"source":"CELESTRAK","updated_at":"2026-09-22T09:00:49.363369Z"}}